Location: Ash Swamp
(41.5170°N, 74.6157°W)
Time: 00:56:35
(UTC+00:00)

Cosmos 2173 Rocket - Pass Details

Date: 14 July 2020
Orbit: 944 x 1002 km, 83.0° (Epoch: 14 August)

Event Time Altitude Azimuth Distance (km) Brightness Sun altitude
Exits shadow 06:56:52 38° 234° (SW) 1,485 4.5 -21.7°
Maximum altitude 06:58:53 50° 282° (WNW) 1,243 4.4 -21.5°
Drops below altitude 10° 07:05:01 10° 357° (N) 2,753 7.2 -21.0°
Sets 07:07:37 0° 3° (N) 3,697 8.1 -20.7°
